Flag for France

Past Weather in 43°41'35.7"N, 7°17'16.6"E, France — Yesterday and Last 2 Weeks

Currently: 68 °F. Scattered clouds. (Weather station: Nice Airport, France). See more current weather

Past Weather in 43°41'35.7"N, 7°17'16.6"E — Graph

°F

43°41'35.7"N, 7°17'16.6"E Temperature Yesterday

Maximum temperature yesterday: 70 °F (at 12:30 pm)
Minimum temperature yesterday: 57 °F (at 4:30 am)
Average temperature yesterday: 64 °F

High & Low Weather Summary for the Past Weeks

 TemperatureHumidityPressure
High79 °F (May 21, 1:00 pm)94% (May 15, 5:30 am)30.09 "Hg (May 15, 5:30 am)
Low54 °F (May 17, 6:30 am)32% (May 21, 4:30 pm)29.65 "Hg (May 16, 3:30 pm)
Average65 °F73%29.89 "Hg
* Reported May 10 9:00 am — May 25 9:30 am, 43°41'35.7"N, 7°17'16.6"E. Weather by CustomWeather, © 2024

Note: Actual official high and low records may vary slightly from our data, if they occured in-between our weather recording intervals... More about our weather records

43°41'35.7"N, 7°17'16.6"E Weather History for the Previous 24 Hours

Scroll right to see more
 ConditionsComfort  
Time TempWeatherWind HumidityBarometerVisibility
9:30 am
Sat, May 25
66 °FScattered clouds.9 mph73%30.04 "HgN/A
9:00 am66 °FPassing clouds.3 mph68%30.04 "HgN/A
8:30 am64 °FPassing clouds.3 mph60%30.01 "HgN/A
8:00 am63 °FPassing clouds.5 mph59%30.01 "HgN/A
7:30 am63 °FPassing clouds.7 mph59%30.01 "HgN/A
7:00 am59 °FPassing clouds.7 mph68%30.01 "HgN/A
6:30 am59 °FSunny.7 mph68%30.01 "Hg10 mi
6:00 am57 °FSunny.6 mph72%30.01 "Hg10 mi
5:30 am59 °FClear.9 mph68%30.01 "Hg10 mi
5:00 am61 °FClear.9 mph63%30.01 "Hg10 mi
4:30 am59 °FClear.8 mph72%30.01 "Hg10 mi
4:00 am61 °FClear.8 mph68%30.01 "Hg10 mi
3:30 am61 °FClear.7 mph68%30.01 "Hg10 mi
3:00 am61 °FClear.7 mph72%30.01 "Hg10 mi
2:30 am61 °FPassing clouds.8 mph72%30.04 "HgN/A
2:00 am61 °FPassing clouds.9 mph72%30.04 "HgN/A
1:30 am61 °FPassing clouds.9 mph72%30.04 "HgN/A
1:00 am63 °FPassing clouds.9 mph68%30.04 "HgN/A
12:30 am63 °FPassing clouds.7 mph73%30.04 "HgN/A
12:00 am63 °FPassing clouds.10 mph73%30.04 "HgN/A
11:30 pm
Fri, May 24
63 °FClear.9 mph77%30.04 "Hg10 mi
11:00 pm63 °FClear.8 mph83%30.04 "Hg10 mi
10:30 pm64 °FClear.6 mph83%30.04 "Hg10 mi
10:00 pm64 °FClear.2 mph83%30.04 "Hg10 mi
9:30 pm66 °FPassing clouds.2 mph78%30.04 "HgN/A
9:00 pm66 °FPassing clouds.2 mph83%30.04 "HgN/A
8:30 pm66 °FScattered clouds.No wind83%30.04 "HgN/A
8:00 pm68 °FScattered clouds.1 mph78%30.04 "HgN/A
7:30 pm68 °FBroken clouds.5 mph78%30.04 "HgN/A
7:00 pm66 °FPartly sunny.6 mph83%30.04 "HgN/A
6:30 pm68 °FPartly sunny.5 mph78%30.04 "HgN/A
6:00 pm66 °FPartly sunny.7 mph83%30.04 "HgN/A
5:30 pm66 °FPartly sunny.7 mph78%30.04 "HgN/A
5:00 pm68 °FPartly sunny.12 mph73%30.04 "HgN/A
4:30 pm68 °FPartly sunny.13 mph78%30.04 "HgN/A
4:00 pm66 °FBroken clouds.10 mph83%30.07 "HgN/A
3:30 pm68 °FPartly sunny.9 mph78%30.07 "HgN/A
3:00 pm66 °FPartly sunny.9 mph78%30.07 "HgN/A
2:30 pm68 °FBroken clouds.9 mph78%30.07 "HgN/A
2:00 pm66 °FScattered showers. Broken clouds.9 mph78%30.07 "HgN/A
1:00 pm68 °FBroken clouds.8 mph73%30.07 "HgN/A
12:30 pm70 °FBroken clouds.6 mph69%30.07 "HgN/A
12:00 pm68 °FScattered clouds.5 mph73%30.07 "HgN/A
11:30 am68 °FScattered clouds.5 mph73%30.07 "HgN/A
11:00 am68 °FScattered clouds.5 mph69%30.07 "HgN/A
Weather by CustomWeather, © 2024

See weather overview